| time (UTC) | temp C | wind direction | speed KPH | gust KPH | rain 1hr cm | rain 24hr cm | rain mn cm | humidity % | barometer mb |
| 20260509180038 | 21 | 346 | 1.6 | 6.4 | 0.00 | 0.00 | 0.00 | 68 | 1009.8 |
| 20260509174539 | 21 | 46 | 3.2 | 11.3 | 0.00 | 0.00 | 0.00 | 68 | 1009.9 |
| 20260509173036 | 21 | 304 | 1.6 | 6.4 | 0.00 | 0.00 | 0.00 | 69 | 1010.0 |
| 20260509171535 | 21 | 274 | 3.2 | 9.7 | 0.00 | 0.00 | 0.00 | 69 | 1010.1 |
| 20260509170035 | 21 | 224 | 1.6 | 12.9 | 0.00 | 0.00 | 0.00 | 69 | 1010.2 |
| 20260509164531 | 22 | 350 | 3.2 | 11.3 | 0.00 | 0.00 | 0.00 | 71 | 1010.3 |
| 20260509163027 | 21 | 25 | 3.2 | 14.5 | 0.00 | 0.00 | 0.00 | 69 | 1010.6 |
| 20260509161529 | 20 | 32 | 8.0 | 17.7 | 0.00 | 0.00 | 0.00 | 70 | 1010.6 |
| 20260509160032 | 20 | 297 | 4.8 | 12.9 | 0.00 | 0.00 | 0.00 | 71 | 1010.6 |
| 20260509154522 | 20 | 44 | 3.2 | 11.3 | 0.00 | 0.00 | 0.00 | 73 | 1010.7 |
| 20260509153031 | 20 | 52 | 1.6 | 14.5 | 0.00 | 0.00 | 0.00 | 74 | 1010.7 |
| 20260509151517 | 20 | 353 | 0.0 | 9.7 | 0.00 | 0.00 | 0.00 | 72 | 1010.8 |
| 20260509150020 | 18 | 258 | 0.0 | 8.0 | 0.00 | 0.00 | 0.00 | 77 | 1010.8 |
| 20260509144523 | 18 | 46 | 1.6 | 16.1 | 0.00 | 0.00 | 0.00 | 77 | 1010.6 |
| 20260509143008 | 17 | 39 | 0.0 | 14.5 | 0.00 | 0.00 | 0.00 | 79 | 1010.6 |
| 20260509141508 | 17 | 32 | 4.8 | 11.3 | 0.00 | 0.00 | 0.00 | 78 | 1010.7 |
| 20260509140001 | 16 | 96 | 0.0 | 8.0 | 0.00 | 0.00 | 0.00 | 81 | 1010.7 |
| 20260509134612 | 16 | 153 | 0.0 | 3.2 | 0.00 | 0.00 | 0.00 | 83 | 1010.4 |
| 20260509133055 | 15 | 85 | 0.0 | 1.6 | 0.00 | 0.00 | 0.00 | 91 | 1010.5 |
| 20260509131550 | 13 | 61 | 0.0 | 1.6 | 0.00 | 0.00 | 0.00 | 94 | 1010.4 |
| 20260509130056 | 12 | 110 | 0.0 | 0.0 | 0.00 | 0.00 | 0.00 | 95 | 1010.8 |
| 20260509124545 | 11 | 119 | 0.0 | 0.0 | 0.00 | 0.00 | 0.00 | 97 | 1010.8 |
| 20260509123051 | 11 | 119 | 0.0 | 0.0 | 0.00 | 0.00 | 0.00 | 96 | 1010.8 |
| 20260509121553 | 11 | 119 | 0.0 | 0.0 | 0.00 | 0.00 | 0.00 | 97 | 1010.9 |
| 20260509120035 | 10 | 119 | 0.0 | 0.0 | 0.00 | 0.00 | 0.00 | 97 | 1011.1 |
| 20260509114537 | 10 | 119 | 0.0 | 0.0 | 0.00 | 0.00 | 0.00 | 97 | 1011.1 |
| 20260509113036 | 10 | 118 | 0.0 | 0.0 | 0.00 | 0.00 | 0.00 | 97 | 1010.8 |
| 20260509111529 | 9 | 116 | 0.0 | 0.0 | 0.00 | 0.00 | 0.00 | 97 | 1010.8 |
| 20260509110032 | 9 | 115 | 0.0 | 0.0 | 0.00 | 0.00 | 0.00 | 97 | 1010.5 |
| 20260509104538 | 8 | 115 | 0.0 | 0.0 | 0.00 | 0.00 | 0.00 | 97 | 1010.5 |
| 20260509103027 | 8 | 115 | 0.0 | 0.0 | 0.00 | 0.00 | 0.00 | 96 | 1010.5 |
| 20260509101533 | 8 | 115 | 0.0 | 0.0 | 0.00 | 0.00 | 0.00 | 96 | 1010.8 |
| 20260509100028 | 8 | 115 | 0.0 | 0.0 | 0.00 | 0.00 | 0.00 | 96 | 1010.9 |
| 20260509094532 | 8 | 115 | 0.0 | 0.0 | 0.00 | 0.00 | 0.00 | 96 | 1011.0 |
| 20260509093025 | 8 | 115 | 0.0 | 0.0 | 0.00 | 0.00 | 0.00 | 96 | 1010.9 |
| 20260509091535 | 7 | 115 | 0.0 | 0.0 | 0.00 | 0.00 | 0.00 | 97 | 1010.8 |
| 20260509090025 | 7 | 115 | 0.0 | 0.0 | 0.00 | 0.00 | 0.00 | 96 | 1010.5 |
| 20260509084524 | 7 | 115 | 0.0 | 0.0 | 0.00 | 0.00 | 0.00 | 96 | 1010.4 |
| 20260509083021 | 7 | 113 | 0.0 | 0.0 | 0.00 | 0.00 | 0.00 | 96 | 1010.4 |
| 20260509081526 | 7 | 113 | 0.0 | 0.0 | 0.00 | 0.00 | 0.00 | 95 | 1010.3 |
| 20260509080019 | 7 | 113 | 0.0 | 0.0 | 0.00 | 0.00 | 0.00 | 95 | 1010.6 |
| 20260509074531 | 7 | 113 | 0.0 | 0.0 | 0.00 | 0.00 | 0.00 | 96 | 1010.5 |
| 20260509073018 | 7 | 113 | 0.0 | 0.0 | 0.00 | 0.00 | 0.00 | 95 | 1010.4 |
| 20260509071515 | 7 | 113 | 0.0 | 0.0 | 0.00 | 0.00 | 0.00 | 94 | 1010.6 |
| 20260509070014 | 7 | 113 | 0.0 | 0.0 | 0.00 | 0.00 | 0.00 | 95 | 1010.5 |
| 20260509064512 | 7 | 113 | 0.0 | 0.0 | 0.00 | 0.00 | 0.00 | 95 | 1010.7 |
| 20260509063014 | 7 | 113 | 0.0 | 0.0 | 0.00 | 0.00 | 0.00 | 93 | 1010.8 |
| 20260509061505 | 8 | 113 | 0.0 | 0.0 | 0.00 | 0.00 | 0.00 | 94 | 1010.9 |
| 20260509060004 | 8 | 113 | 0.0 | 0.0 | 0.00 | 0.00 | 0.00 | 93 | 1011.1 |
| 20260509054504 | 8 | 73 | 0.0 | 0.0 | 0.00 | 0.00 | 0.00 | 93 | 1011.0 |
| 20260509053110 | 8 | 73 | 0.0 | 0.0 | 0.00 | 0.00 | 0.00 | 93 | 1011.3 |
| 20260509051559 | 8 | 73 | 0.0 | 0.0 | 0.00 | 0.00 | 0.00 | 92 | 1011.5 |
| 20260509050053 | 8 | 73 | 0.0 | 0.0 | 0.00 | 0.00 | 0.00 | 92 | 1011.7 |
| 20260509044552 | 8 | 73 | 0.0 | 0.0 | 0.00 | 0.00 | 0.00 | 91 | 1011.7 |
| 20260509043050 | 8 | 73 | 0.0 | 0.0 | 0.00 | 0.00 | 0.00 | 90 | 1011.7 |
| 20260509041611 | 8 | 73 | 0.0 | 0.0 | 0.00 | 0.00 | 0.00 | 88 | 1011.8 |
| 20260509040045 | 10 | 73 | 0.0 | 0.0 | 0.00 | 0.00 | 0.00 | 88 | 1011.9 |
| 20260509034544 | 9 | 73 | 0.0 | 0.0 | 0.00 | 0.00 | 0.00 | 87 | 1012.1 |
| 20260509033043 | 10 | 73 | 0.0 | 0.0 | 0.00 | 0.00 | 0.00 | 86 | 1012.1 |
| 20260509031542 | 10 | 73 | 0.0 | 0.0 | 0.00 | 0.00 | 0.00 | 85 | 1012.2 |
| 20260509030045 | 10 | 73 | 0.0 | 0.0 | 0.00 | 0.00 | 0.00 | 84 | 1012.0 |
| 20260509024541 | 11 | 73 | 0.0 | 0.0 | 0.00 | 0.00 | 0.00 | 80 | 1011.8 |
| 20260509023058 | 11 | 73 | 0.0 | 0.0 | 0.00 | 0.00 | 0.00 | 80 | 1012.0 |
| 20260509021541 | 11 | 73 | 0.0 | 0.0 | 0.00 | 0.00 | 0.00 | 78 | 1012.1 |
| 20260509020051 | 12 | 73 | 0.0 | 0.0 | 0.00 | 0.00 | 0.00 | 75 | 1012.0 |
| 20260509014541 | 12 | 72 | 0.0 | 0.0 | 0.00 | 0.00 | 0.00 | 75 | 1011.9 |
| 20260509013044 | 13 | 72 | 0.0 | 0.0 | 0.00 | 0.00 | 0.00 | 73 | 1011.8 |
| 20260509011541 | 13 | 72 | 0.0 | 0.0 | 0.00 | 0.00 | 0.00 | 68 | 1011.7 |
| 20260509010041 | 14 | 72 | 0.0 | 0.0 | 0.00 | 0.00 | 0.00 | 65 | 1011.7 |
| 20260509004537 | 15 | 70 | 0.0 | 0.0 | 0.00 | 0.00 | 0.00 | 63 | 1011.6 |
| 20260509003037 | 16 | 70 | 0.0 | 0.0 | 0.00 | 0.00 | 0.00 | 59 | 1011.7 |
| 20260509001536 | 17 | 70 | 0.0 | 0.0 | 0.00 | 0.00 | 0.00 | 56 | 1011.7 |
| 20260509000035 | 17 | 63 | 0.0 | 0.0 | 0.00 | 0.00 | 0.00 | 54 | 1011.8 |
| 20260508234536 | 18 | 56 | 0.0 | 3.2 | 0.00 | 0.00 | 0.00 | 51 | 1011.8 |
| 20260508233037 | 18 | 54 | 0.0 | 4.8 | 0.00 | 0.00 | 0.00 | 47 | 1011.9 |
| 20260508231536 | 19 | 49 | 3.2 | 9.7 | 0.00 | 0.00 | 0.00 | 44 | 1011.9 |
| 20260508230040 | 19 | 63 | 0.0 | 4.8 | 0.00 | 0.00 | 0.00 | 46 | 1011.8 |
| 20260508224532 | 20 | 68 | 0.0 | 4.8 | 0.00 | 0.00 | 0.00 | 44 | 1011.7 |
| 20260508223033 | 20 | 75 | 0.0 | 8.0 | 0.00 | 0.00 | 0.00 | 44 | 1011.8 |
| 20260508221531 | 20 | 70 | 0.0 | 6.4 | 0.00 | 0.00 | 0.00 | 48 | 1011.8 |
| 20260508220030 | 20 | 316 | 0.0 | 12.9 | 0.00 | 0.00 | 0.00 | 48 | 1012.0 |
| 20260508214532 | 20 | 45 | 3.2 | 11.3 | 0.00 | 0.00 | 0.00 | 43 | 1012.1 |
| 20260508213037 | 20 | 37 | 0.0 | 6.4 | 0.00 | 0.00 | 0.00 | 44 | 1012.3 |
| 20260508211535 | 20 | 38 | 1.6 | 11.3 | 0.00 | 0.00 | 0.00 | 44 | 1012.3 |
| 20260508210027 | 20 | 31 | 0.0 | 8.0 | 0.00 | 0.00 | 0.00 | 44 | 1012.4 |
| 20260508204525 | 21 | 315 | 1.6 | 11.3 | 0.00 | 0.00 | 0.00 | 42 | 1012.2 |
| 20260508203023 | 21 | 334 | 0.0 | 6.4 | 0.00 | 0.00 | 0.00 | 40 | 1012.3 |
| 20260508201522 | 21 | 27 | 0.0 | 4.8 | 0.00 | 0.00 | 0.00 | 40 | 1012.6 |
| 20260508200019 | 21 | 201 | 0.0 | 9.7 | 0.00 | 0.00 | 0.00 | 36 | 1012.5 |
| 20260508194528 | 22 | 46 | 0.0 | 6.4 | 0.00 | 0.00 | 0.00 | 40 | 1012.8 |
| 20260508193012 | 21 | 230 | 0.0 | 6.4 | 0.00 | 0.00 | 0.00 | 38 | 1013.2 |
| 20260508191509 | 21 | 29 | 0.0 | 8.0 | 0.00 | 0.00 | 0.00 | 41 | 1013.6 |
| 20260508190012 | 21 | 30 | 3.2 | 11.3 | 0.00 | 0.00 | 0.00 | 38 | 1014.2 |
| 20260508184506 | 21 | 322 | 0.0 | 6.4 | 0.00 | 0.00 | 0.00 | 41 | 1014.4 |
| 20260508183126 | 20 | 137 | 0.0 | 6.4 | 0.00 | 0.00 | 0.00 | 44 | 1014.5 |
| 20260508181606 | 20 | 50 | 4.8 | 9.7 | 0.00 | 0.00 | 0.00 | 43 | 1014.9 |